Location: Bennemühlen
(52.5740°N, 9.7135°E)
Time: 16:27:46
(UTC+00:00)

Tiros 1 despin weight - Pass Details

Date: 22 February 2026
Orbit: 556 x 593 km, 48.2° (Epoch: 11 March)

Event Time Altitude Azimuth Distance (km) Brightness Sun altitude
Rises 13:57:23 0° 238° (WSW) 2,744 ? 20.3°
Reaches altitude 10° 13:59:45 10° 230° (SW) 1,845 ? 20.1°
Maximum altitude 14:03:37 36° 164° (SSE) 899 ? 19.7°
Drops below altitude 10° 14:07:27 10° 97° (E) 1,839 ? 19.4°
Sets 14:09:49 0° 89° (E) 2,734 ? 19.1°
